Meteo pe oră la 1-e Tukatovo

Astăzi, 13 Iunie, Duminică

Timp Temperatura Precipitaţii Vânt Presiune Umiditate
00:00 +17°C° 0.2 mm 3 m/s 736 mmHg 85%
01:00 +17°C° 0.2 mm 4 m/s 737 mmHg 87%
02:00 +17°C° 0 mm 4 m/s 737 mmHg 85%
03:00 +17°C° 0 mm 4 m/s 737 mmHg 83%
04:00 +15°C° 0 mm 4 m/s 737 mmHg 80%
05:00 +17°C° 0 mm 4 m/s 737 mmHg 77%
06:00 +17°C° 0 mm 4 m/s 738 mmHg 73%
07:00 +17°C° 0 mm 4 m/s 738 mmHg 70%
08:00 +17°C° 0 mm 5 m/s 738 mmHg 67%
09:00 +19°C° 0 mm 6 m/s 738 mmHg 64%
10:00 +21°C° 0 mm 7 m/s 738 mmHg 61%
11:00 +21°C° 0 mm 7 m/s 738 mmHg 61%
12:00 +21°C° 0 mm 6 m/s 738 mmHg 60%
13:00 +21°C° 0 mm 6 m/s 738 mmHg 60%
14:00 +22°C° 0 mm 6 m/s 738 mmHg 55%
15:00 +24°C° 0 mm 6 m/s 738 mmHg 51%
16:00 +26°C° 0 mm 5 m/s 738 mmHg 46%
17:00 +25°C° 0 mm 5 m/s 738 mmHg 49%
18:00 +23°C° 0 mm 5 m/s 738 mmHg 53%
19:00 +22°C° 0 mm 4 m/s 737 mmHg 57%
20:00 +22°C° 0 mm 5 m/s 738 mmHg 53%
21:00 +21°C° 0 mm 5 m/s 738 mmHg 49%
22:00 +21°C° 0 mm 5 m/s 738 mmHg 45%
23:00 +20°C° 0 mm 4 m/s 738 mmHg 47%

Mâine, 14 Iunie, Luni

Timp Temperatura Precipitaţii Vânt Presiune Umiditate
00:00 +19°C° 0 mm 3 m/s 738 mmHg 48%
01:00 +18°C° 0 mm 3 m/s 738 mmHg 49%
02:00 +18°C° 0 mm 3 m/s 738 mmHg 48%
03:00 +18°C° 0 mm 3 m/s 739 mmHg 47%
04:00 +17°C° 0 mm 3 m/s 739 mmHg 45%
05:00 +18°C° 0 mm 3 m/s 739 mmHg 47%
06:00 +19°C° 0 mm 3 m/s 739 mmHg 49%
07:00 +20°C° 0 mm 3 m/s 740 mmHg 51%
08:00 +22°C° 0 mm 4 m/s 740 mmHg 50%
09:00 +23°C° 0 mm 5 m/s 740 mmHg 49%
10:00 +26°C° 0 mm 5 m/s 740 mmHg 47%
11:00 +27°C° 0 mm 5 m/s 740 mmHg 44%
12:00 +27°C° 0 mm 6 m/s 740 mmHg 41%
13:00 +28°C° 0 mm 6 m/s 740 mmHg 37%
14:00 +28°C° 0 mm 5 m/s 740 mmHg 39%
15:00 +28°C° 0 mm 5 m/s 740 mmHg 40%
16:00 +28°C° 0 mm 4 m/s 740 mmHg 42%
17:00 +27°C° 0 mm 4 m/s 739 mmHg 49%
18:00 +26°C° 0 mm 3 m/s 739 mmHg 56%
19:00 +24°C° 0 mm 3 m/s 739 mmHg 63%
20:00 +23°C° 0 mm 2 m/s 739 mmHg 62%
21:00 +20°C° 0 mm 2 m/s 739 mmHg 62%
22:00 +19°C° 0 mm 2 m/s 739 mmHg 61%
23:00 +18°C° 0 mm 2 m/s 739 mmHg 60%

Poimâine, 15 Iunie, Marţi

Timp Temperatura Precipitaţii Vânt Presiune Umiditate
00:00 +18°C° 0 mm 2 m/s 739 mmHg 59%
01:00 +17°C° 0 mm 2 m/s 738 mmHg 58%
02:00 +17°C° 0 mm 2 m/s 739 mmHg 58%
03:00 +17°C° 0 mm 2 m/s 739 mmHg 58%
04:00 +16°C° 0 mm 1 m/s 739 mmHg 58%
05:00 +19°C° 0 mm 1 m/s 739 mmHg 57%
06:00 +21°C° 0 mm 1 m/s 739 mmHg 57%
07:00 +23°C° 0 mm 1 m/s 739 mmHg 56%
08:00 +24°C° 0 mm 2 m/s 739 mmHg 51%
09:00 +26°C° 0 mm 3 m/s 739 mmHg 47%
10:00 +28°C° 0 mm 3 m/s 739 mmHg 42%
11:00 +29°C° 0 mm 3 m/s 739 mmHg 40%
12:00 +29°C° 0 mm 3 m/s 738 mmHg 38%
13:00 +30°C° 0 mm 3 m/s 738 mmHg 36%
14:00 +30°C° 0 mm 3 m/s 738 mmHg 37%
15:00 +30°C° 0 mm 3 m/s 738 mmHg 37%
16:00 +30°C° 0 mm 3 m/s 737 mmHg 38%
17:00 +29°C° 0 mm 3 m/s 737 mmHg 45%
18:00 +27°C° 0 mm 2 m/s 737 mmHg 52%
19:00 +26°C° 0 mm 1 m/s 736 mmHg 60%
20:00 +24°C° 0 mm 1 m/s 736 mmHg 59%
21:00 +21°C° 0 mm 2 m/s 736 mmHg 59%
22:00 +20°C° 0 mm 2 m/s 736 mmHg 58%
23:00 +19°C° 0 mm 2 m/s 736 mmHg 58%

16 Iunie, Miercuri

Timp Temperatura Precipitaţii Vânt Presiune Umiditate
00:00 +18°C° 0 mm 2 m/s 736 mmHg 58%
01:00 +19°C° 0 mm 1 m/s 735 mmHg 58%
02:00 +18°C° 0 mm 1 m/s 735 mmHg 57%
03:00 +18°C° 0 mm 1 m/s 735 mmHg 57%
04:00 +18°C° 0 mm 1 m/s 735 mmHg 56%
05:00 +20°C° 0 mm 1 m/s 736 mmHg 57%
06:00 +21°C° 0 mm 1 m/s 736 mmHg 57%
07:00 +23°C° 0 mm 1 m/s 736 mmHg 58%
08:00 +25°C° 0 mm 1 m/s 736 mmHg 51%
09:00 +27°C° 0 mm 2 m/s 736 mmHg 44%
10:00 +30°C° 0 mm 2 m/s 736 mmHg 38%
11:00 +30°C° 0 mm 3 m/s 736 mmHg 36%
12:00 +32°C° 0 mm 4 m/s 735 mmHg 34%
13:00 +33°C° 0 mm 5 m/s 735 mmHg 32%
14:00 +33°C° 0 mm 4 m/s 735 mmHg 34%
15:00 +33°C° 0 mm 4 m/s 735 mmHg 35%
16:00 +33°C° 0 mm 4 m/s 734 mmHg 36%
17:00 +30°C° 0 mm 4 m/s 734 mmHg 44%
18:00 +29°C° 0 mm 3 m/s 734 mmHg 51%
19:00 +27°C° 0 mm 3 m/s 733 mmHg 59%
20:00 +26°C° 0 mm 3 m/s 733 mmHg 57%
21:00 +25°C° 0 mm 2 m/s 733 mmHg 55%
22:00 +23°C° 0 mm 2 m/s 732 mmHg 53%
23:00 +23°C° 0 mm 2 m/s 732 mmHg 54%

17 Iunie, Joi

Timp Temperatura Precipitaţii Vânt Presiune Umiditate
00:00 +21°C° 0 mm 2 m/s 732 mmHg 55%
01:00 +20°C° 0 mm 2 m/s 732 mmHg 56%
02:00 +20°C° 0 mm 2 m/s 732 mmHg 60%
03:00 +19°C° 0 mm 2 m/s 732 mmHg 64%
04:00 +19°C° 0 mm 1 m/s 732 mmHg 68%
05:00 +20°C° 0 mm 2 m/s 732 mmHg 68%
06:00 +21°C° 0 mm 2 m/s 732 mmHg 68%
07:00 +22°C° 0 mm 3 m/s 732 mmHg 67%
08:00 +25°C° 0 mm 4 m/s 731 mmHg 64%
09:00 +26°C° 0 mm 5 m/s 731 mmHg 60%
10:00 +27°C° 0 mm 6 m/s 731 mmHg 57%
11:00 +27°C° 0 mm 6 m/s 731 mmHg 57%
12:00 +27°C° 0 mm 6 m/s 731 mmHg 57%
13:00 +27°C° 0 mm 6 m/s 731 mmHg 57%
14:00 +26°C° 0.3 mm 6 m/s 731 mmHg 65%
15:00 +24°C° 0.3 mm 7 m/s 731 mmHg 72%
16:00 +23°C° 0.3 mm 7 m/s 731 mmHg 79%
17:00 +21°C° 0.1 mm 7 m/s 732 mmHg 82%
18:00 +18°C° 0.1 mm 7 m/s 732 mmHg 85%
19:00 +17°C° 0.1 mm 7 m/s 732 mmHg 88%
20:00 +16°C° 0 mm 6 m/s 732 mmHg 89%
21:00 +15°C° 0 mm 6 m/s 733 mmHg 89%
22:00 +14°C° 0 mm 5 m/s 733 mmHg 90%
23:00 +13°C° 0 mm 5 m/s 733 mmHg 90%

18 Iunie, Vineri

Timp Temperatura Precipitaţii Vânt Presiune Umiditate
00:00 +12°C° 0 mm 5 m/s 734 mmHg 90%
01:00 +11°C° 0 mm 4 m/s 734 mmHg 90%
02:00 +10°C° 0 mm 4 m/s 734 mmHg 91%
03:00 +9°C° 0 mm 3 m/s 735 mmHg 92%
04:00 +9°C° 0 mm 3 m/s 735 mmHg 93%
05:00 +10°C° 0 mm 4 m/s 735 mmHg 82%
06:00 +10°C° 0 mm 5 m/s 736 mmHg 71%
07:00 +11°C° 0 mm 7 m/s 736 mmHg 61%
08:00 +12°C° 0 mm 7 m/s 736 mmHg 53%
09:00 +14°C° 0 mm 7 m/s 737 mmHg 46%
10:00 +16°C° 0 mm 7 m/s 737 mmHg 39%
11:00 +16°C° 0 mm 8 m/s 737 mmHg 36%
12:00 +17°C° 0 mm 8 m/s 737 mmHg 34%
13:00 +18°C° 0 mm 8 m/s 737 mmHg 31%
14:00 +18°C° 0 mm 8 m/s 737 mmHg 32%
15:00 +18°C° 0 mm 8 m/s 738 mmHg 33%
16:00 +18°C° 0 mm 8 m/s 738 mmHg 35%
17:00 +17°C° 0 mm 7 m/s 738 mmHg 40%
18:00 +16°C° 0 mm 7 m/s 738 mmHg 45%
19:00 +15°C° 0 mm 6 m/s 738 mmHg 50%
20:00 +14°C° 0 mm 4 m/s 739 mmHg 58%
21:00 +12°C° 0 mm 3 m/s 739 mmHg 65%
22:00 +10°C° 0 mm 2 m/s 739 mmHg 73%
23:00 +10°C° 0 mm 1 m/s 739 mmHg 77%
Arată mai mult

Formular de consimțământ

Meteoprog și furnizorii noștri de servicii pot stoca și accesa date personale, precum cookies, identificatori de dispozitiv sau alte tehnologii similare pe dispozitivul dumneavoastră și procesa astfel de date pentru a personaliza conținutul și reclamele, dar și pentru a oferi caracteristici de social media și pentru a analiza traficul.

  • Stocarea și/sau accesarea informațiilor pe dispozitivul dumneavoastră

    Cookies, identificatori de dispozitiv sau alte informații pot fi stocate sau accesate pe dispozitiv în scopurile indicate mai sus.

  • Reclame și conținut personalizat, evaluarea reclamelor și a conținutului, informații despre audiențe și dezvoltarea produselor

    Reclamele și conținutul pot fi personalizate pe baza unui profil. Pot fi adăugate date suplimentare pentru a personaliza mai bine reclamele și conținutul. Performanța reclamelor și conținutului poate fi măsurată. Pot fi obținute informații despre utilizatorii care au văzut reclamele și conținutul. Aceste date pot fi utilizate pentru a dezvolta sau îmbunătăți experiența utilizatorilor, sistemele și software-ul.

Dând clic pe ‘Sunt de acord’, permiteți utilizarea cookie-urilor menționate, a identificatorilor de dispozitiv, balizelor web sau altor tehnologii similare. Setările pot fi modificate din browser-ul dispozitivului dumneavoastră.

În anumite scopuri, interesele legitime pot prima asupra consimțământului. Puteți citi mai multe informații în acest sens în Politica privind Confidențialitatea Datelor și Cookie.